Dewpoint
34 34 35 35 36 37 38 40 41 43 44 46 48 50 52 52 53 53 52 52 50 48 48 47 46 47 46 46 46 45 45 47 48 41 37 37 33 31 31 31 32 31 31
34 34 34 35 35 36 37 38 39 41 42 43 45 46 47 47 47 48 46 46 46 45 44 44 44 43 42 42 42 42 39 40 43 39 35 33 33 29 30 29 29 29 29
32 33 34 34 35 35 36 36 37 39 39 41 42 43 43 44 43 43 43 42 41 40 41 41 41 41 39 39 39 37 37 34 35 33 30 30 30 28 27 27 27 27 28
31 32 33 33 34 34 35 35 36 37 37 38 39 40 41 40 40 40 39 38 37 37 37 37 37 37 37 36 35 34 32 31 30 29 28 27 26 27 26 25 25 25 25
31 31 32 33 33 33 34 34 34 35 35 36 37 37 38 38 38 37 37 36 35 34 34 34 34 33 34 34 32 31 30 28 28 27 26 25 25 25 25 25 24 22 18
28 31 32 32 32 32 32 33 33 33 34 35 35 35 35 35 37 36 35 34 33 32 32 32 33 32 34 34 34 33 31 28 28 26 25 25 25 25 25 25 24 19 17
28 30 32 32 31 31 32 31 32 32 33 33 33 34 34 34 34 34 33 31 31 30 30 30 30 30 30 30 32 31 31 31 30 27 26 26 25 25 26 21 20 22 21
28 29 30 29 29 30 30 30 30 31 31 32 32 32 33 33 33 32 31 30 30 29 29 29 29 28 28 28 28 28 28 28 28 26 26 26 26 26 26 26 24 16 14
27 28 27 27 27 27 27 28 27 29 29 29 30 31 30 30 32 31 29 28 28 28 28 28 29 29 30 29 27 27 27 28 29 28 28 28 27 26 27 25 17 9 7
26 27 27 27 26 26 26 26 26 27 28 28 28 28 28 29 31 30 29 28 28 28 28 29 29 29 30 29 26 25 21 25 26 26 26 25 25 26 25 25 23 11 6
24 25 25 26 26 26 25 25 25 25 25 24 25 25 26 28 29 30 29 27 28 27 27 27 29 30 30 29 28 26 26 26 26 25 23 24 24 24 22 22 23 21 8
21 21 20 21 26 25 22 22 21 21 20 20 23 22 22 24 29 30 30 28 28 26 25 27 28 29 29 29 28 28 27 25 25 23 22 22 18 15 15 14 16 17 17
16 15 21 19 22 23 22 20 19 18 18 18 22 24 25 22 24 30 29 28 28 25 24 27 28 28 28 28 27 26 25 24 23 21 21 21 14 10 9 8 7 7 6
17 15 17 22 21 17 23 23 21 18 17 19 18 20 17 23 18 20 24 25 27 25 27 23 25 23 23 21 23 23 23 24 22 21 18 8 6 5 4 2 3 0 1
17 16 17 19 20 19 21 22 22 20 21 18 16 17 14 12 17 23 22 19 16 21 13 13 8 6 5 13 19 22 23 23 22 21 5 4 2 1 2 -3 -2 -4 -1
18 18 19 19 18 19 19 16 27 26 27 27 26 21 19 22 25 28 27 27 26 26 5 1 2 0 5 7 16 19 21 22 22 16 3 1 1 -0 -1 -3 -3 -6 -3
20 20 19 19 18 18 18 18 21 21 28 30 30 29 27 24 27 28 28 27 27 26 2 -4 3 5 6 4 10 13 18 21 22 21 7 4 2 -1 2 -1 -1 -4 -3
21 19 20 20 20 19 20 19 15 17 21 23 27 28 29 29 29 29 29 28 24 26 12 7 7 5 3 7 5 10 12 19 20 20 11 6 7 8 4 3 5 -1 -5
21 21 21 21 21 20 20 19 18 16 15 13 4 19 23 28 29 29 29 19 21 24 21 4 4 6 6 7 9 10 10 13 10 8 7 6 7 8 3 4 5 2 -0
23 23 22 22 20 19 19 19 18 18 17 16 13 16 16 18 25 25 26 25 18 16 13 13 8 9 10 10 12 12 8 8 8 9 9 10 8 8 10 6 3 1 -2
25 24 22 23 22 21 21 20 20 19 19 19 18 18 20 21 22 23 23 23 19 20 17 13 12 11 11 12 13 13 14 13 12 12 11 11 8 4 5 6 5 -3 -3
25 25 24 23 24 23 22 22 22 21 21 20 20 21 24 20 20 20 21 20 20 21 21 17 16 15 14 13 14 14 15 15 14 13 12 12 11 10 10 6 5 1 -1
25 25 25 24 25 24 24 23 23 22 22 22 21 20 21 22 20 20 20 20 19 18 19 18 17 16 16 15 15 16 17 17 16 15 15 14 12 13 12 12 11 7 5
25 25 25 25 25 25 25 25 25 24 24 23 23 22 20 22 22 21 21 20 19 19 18 17 17 16 15 14 15 16 17 17 17 16 16 16 15 15 14 10 11 9 9
25 26 25 25 26 25 26 27 26 26 25 24 24 23 23 21 22 23 23 22 21 19 18 17 17 17 16 14 14 14 15 17 16 17 17 17 16 15 15 14 10 6 4
25 26 26 26 26 26 27 27 26 26 26 25 25 26 25 24 23 23 23 23 22 20 19 18 17 16 16 15 14 14 15 16 15 15 16 16 15 14 13 13 10 8 9
Lifted_Index
11 11 12 12 12 13 12 12 12 10 7 4 3 2 2 1 1 1 1 1 1 1 1 1 2 2 2 2 1 2 2 2 2 2 3 4 8 11 13 13 13 13 13
11 11 11 11 12 12 12 12 12 10 8 5 3 2 2 1 1 1 1 1 1 1 1 2 2 2 2 2 2 2 2 2 3 3 5 7 10 12 13 13 13 14 14
11 11 11 11 11 11 11 12 11 10 9 6 4 3 2 2 2 2 1 1 1 1 1 2 2 2 2 2 2 3 3 5 6 8 9 11 12 13 13 13 13 14 14
11 11 11 10 10 10 11 11 11 10 8 7 5 4 4 3 3 2 2 1 1 1 1 2 2 2 2 2 3 5 7 9 10 11 11 12 12 12 12 13 13 13 14
11 11 11 10 10 10 10 10 10 9 8 7 6 5 4 4 3 3 2 2 1 2 2 2 2 2 3 5 7 9 11 12 12 12 11 11 12 12 12 12 12 13 13
12 11 10 10 10 9 9 9 9 8 8 7 6 5 5 4 3 3 3 3 2 2 2 3 3 5 7 9 11 12 13 13 12 12 11 11 12 12 12 12 12 12 12
11 11 10 10 10 9 9 8 8 8 7 6 6 5 5 4 4 4 4 4 3 4 5 6 8 9 11 12 13 13 13 13 13 13 12 12 13 13 13 13 13 13 13
10 9 9 10 10 10 9 8 8 7 7 6 6 6 5 5 6 6 5 5 5 7 8 10 11 12 13 13 13 13 13 13 14 14 14 14 14 14 15 14 14 14 14
8 8 9 10 11 11 10 9 8 8 8 7 7 7 7 8 8 8 8 8 8 10 11 12 13 13 13 13 13 13 13 13 14 14 15 15 15 15 15 15 15 14 14
9 9 9 11 13 13 12 11 10 9 9 9 8 8 10 11 12 12 11 11 11 11 12 12 13 13 13 13 13 13 13 13 14 14 15 15 15 16 16 16 15 14 13
11 11 11 13 13 14 13 13 12 11 11 10 9 10 12 13 13 13 13 12 12 12 12 12 13 13 13 13 13 13 13 13 14 14 14 14 15 15 15 16 16 15 15
13 13 13 14 14 14 14 13 13 13 13 12 11 12 13 13 14 14 13 13 13 13 13 13 13 13 13 13 14 14 14 14 14 14 14 14 14 15 15 16 16 16 16
14 14 14 14 14 14 14 14 14 14 13 12 12 13 13 14 14 14 14 14 14 14 14 14 14 14 14 14 14 14 15 14 14 14 13 14 14 15 15 15 16 16 16
13 13 13 14 14 14 14 14 14 14 13 13 13 13 13 13 14 14 14 14 14 14 14 14 14 14 14 14 14 15 15 14 14 14 14 14 15 15 15 15 15 15 15
13 13 13 13 13 14 14 14 14 14 14 14 13 13 13 13 14 14 14 14 14 14 14 14 13 13 13 14 14 14 15 15 14 14 14 14 15 15 15 15 15 15 14
12 12 13 13 13 13 13 13 14 14 15 14 14 14 14 14 14 14 14 14 14 14 13 13 13 13 13 13 14 14 15 15 15 15 15 15 15 15 15 15 15 15 14
12 12 13 13 13 12 12 12 12 13 14 14 14 14 14 14 15 15 15 14 14 13 13 12 12 13 13 14 14 15 15 15 16 16 16 15 15 15 15 15 14 14 14
11 12 12 12 13 13 12 12 12 12 12 13 14 14 14 14 15 15 15 14 13 13 13 13 13 13 14 14 15 15 15 15 16 16 16 16 15 15 15 14 14 13 13
11 11 12 12 13 13 13 13 12 12 12 12 13 13 14 14 14 14 14 14 13 13 13 14 14 14 15 15 15 16 16 16 16 15 15 15 15 15 15 14 14 14 13
10 10 11 11 12 12 13 13 12 12 12 12 12 13 14 14 14 14 14 14 13 14 14 14 15 15 15 15 16 16 16 16 15 15 15 15 15 15 15 15 15 14 14
11 10 10 10 11 11 12 12 12 12 12 12 12 13 14 14 13 13 13 13 14 14 14 15 15 15 16 16 16 16 16 15 15 15 15 15 15 15 15 15 15 15 15
11 11 10 10 10 11 11 11 11 12 12 12 12 13 14 14 14 13 13 13 14 14 15 15 15 16 16 16 16 16 15 15 15 15 15 15 15 15 15 15 15 15 15
10 10 10 10 11 11 11 10 10 11 11 11 12 12 13 13 14 14 13 13 14 14 15 15 15 15 15 16 16 16 15 15 15 15 15 15 15 15 15 15 15 15 14
8 8 8 9 10 11 11 10 10 10 10 10 10 11 11 12 12 13 13 13 13 14 14 14 15 15 15 15 16 16 16 15 15 15 15 15 15 15 15 15 15 15 15
7 7 8 9 9 10 10 10 9 9 10 10 10 10 10 10 11 12 12 13 13 13 14 14 14 14 15 15 16 16 16 16 16 16 16 16 16 16 16 15 15 15 15
8 8 8 9 9 10 10 9 8 8 10 11 11 11 10 10 10 11 12 12 13 13 14 14 14 14 15 15 16 16 16 16 16 16 16 16 16 16 16 16 16 16 16